Main page
METAR-TAF:

METAR-TAF

Airports :

Sania Ramel Airport

Tétouan, Morocco

latitude: 35-35N, longitude: 005-20W, elevation: 10 m

Current weather observation

The report was made 52 minutes ago, at 01:00 UTC
Wind 15 kt from the West, varying between Southwest and West/Northwest
Temperature 14°C
Humidity 82%
Pressure 1013 hPa
Visibility: 2300 m

METAR: GMTN 200100Z AUTO 27015KT 220V300 2300NDV /// 14/11 Q1013

Time: 01:52 (01:52 UTC)


TAF: missing

Weather observations and forecasts of more than 4000 airports (METAR and TAF reports).

The available stations are represented by yellow and red dots on the map.

Hover mouse over dot to see the name of the station.

Then click to see weather observations and forecasts.

To change the map : click on the green buttons with a black cross to zoom in, on the green button with a dash to zoom out, or on the green arrows for adjacent maps.


METAR-TAF: